CST,Max TemperatureF,Mean TemperatureF,Min TemperatureF,Max Dew PointF,MeanDew PointF,Min DewpointF,Max Humidity, Mean Humidity, Min Humidity, Max Sea Level PressureIn, Mean Sea Level PressureIn, Min Sea Level PressureIn, Max VisibilityMiles, Mean VisibilityMiles, Min VisibilityMiles, Max Wind SpeedMPH, Mean Wind SpeedMPH, Max Gust SpeedMPH,PrecipitationIn, CloudCover, Events, WindDirDegrees
2013-1-1,75,63,51,65,58,49,94,81,55,30.12,29.99,29.94,10,8,2,16,5,28,0.15,6,Rain,220
2013-1-2,64,56,48,63,49,41,94,78,45,30.15,30.04,29.95,10,9,2,12,7,17,0.06,7,Rain,349
2013-1-3,48,42,36,43,39,31,93,84,73,30.32,30.23,30.16,10,7,4,9,5,,0.14,5,Rain,352
2013-1-4,57,44,32,34,30,23,89,66,26,30.40,30.35,30.31,10,9,5,8,3,,0.00,0,,9
2013-1-5,53,43,33,40,33,27,92,65,37,30.38,30.32,30.23,10,10,10,5,1,,0.00,3,,36
2013-1-6,55,48,41,42,39,36,93,69,57,30.28,30.22,30.17,10,10,10,7,2,,0.00,6,Rain,10
2013-1-7,57,46,35,37,34,29,96,69,33,30.34,30.27,30.24,10,9,5,9,2,21,0.00,1,,78
2013-1-8,66,56,45,53,45,36,75,68,54,30.30,30.24,30.20,10,10,10,7,3,,0.00,6,,65
2013-1-9,66,62,59,61,58,53,88,83,75,30.32,30.28,30.22,10,9,7,7,4,,0.00,8,,82
2013-1-10,79,72,64,66,63,60,94,80,56,30.30,30.25,30.16,10,7,2,13,5,21,0.00,6,,144
2013-1-11,80,70,60,65,62,58,94,79,50,30.20,30.14,30.08,10,9,4,20,7,24,0.00,5,,188
2013-1-12,78,70,63,65,62,57,100,84,48,30.16,30.09,30.04,10,7,0,15,4,20,0.00,5,Fog,183
2013-1-13,79,72,64,66,64,60,94,81,52,30.07,30.03,30.00,10,9,7,15,6,25,0.00,7,,182
2013-1-14,78,72,66,68,65,63,96,83,61,30.12,30.08,30.04,10,9,4,17,8,24,0.01,7,Rain,190
2013-1-15,78,72,66,69,66,64,97,86,61,30.07,30.01,29.96,10,6,1,16,7,29,0.15,8,Rain,187
2013-1-16,73,64,55,68,62,53,96,93,84,30.00,29.95,29.92,10,6,1,12,6,21,0.66,8,Rain,296
2013-1-17,55,47,39,55,40,31,97,83,70,30.26,30.04,29.92,10,8,2,20,8,32,0.02,7,Rain,285
2013-1-18,60,48,35,37,31,26,86,62,27,30.49,30.40,30.29,10,10,10,10,6,16,0.00,0,,29
2013-1-19,64,48,32,47,37,28,92,67,40,30.43,30.32,30.24,10,10,7,6,1,,0.00,4,,4
2013-1-20,66,52,39,46,40,36,97,70,33,30.25,30.18,30.12,10,9,4,9,1,,0.00,1,,342
2013-1-21,66,50,34,44,37,31,93,64,34,30.19,30.14,30.08,10,9,5,10,2,,0.00,0,,351
2013-1-22,57,45,33,32,26,20,89,55,24,30.35,30.29,30.19,10,10,10,8,3,,0.00,0,,3
2013-1-23,62,46,30,45,35,27,92,69,34,30.43,30.34,30.28,10,9,5,7,1,,0.00,3,,277
2013-1-24,71,60,48,52,49,44,94,76,49,30.31,30.27,30.22,10,7,2,12,5,16,0.00,3,,292
2013-1-25,70,59,48,53,46,33,93,63,47,30.30,30.22,30.14,10,10,4,16,4,23,0.00,3,,212
2013-1-26,70,62,51,57,54,44,90,76,60,30.26,30.20,30.16,10,9,5,8,4,,0.00,5,,334
2013-1-27,72,58,45,50,41,33,86,56,34,30.34,30.30,30.26,10,10,8,6,2,,0.00,3,,83
2013-1-28,75,64,53,59,54,50,90,76,50,30.34,30.28,30.20,10,9,7,9,2,,0.00,4,,143
2013-1-29,78,69,60,66,61,57,93,75,48,30.19,30.08,29.95,10,9,2,16,5,28,0.00,5,,186
2013-1-30,77,62,46,72,60,35,94,84,66,30.02,29.78,29.62,10,8,1,34,16,44,0.45,8,Rain-Thunderstorm,234
2013-1-31,55,45,33,33,27,21,89,54,26,30.29,30.18,30.05,10,10,10,16,8,26,0.00,0,,326